00:00:07,7C0ED8E0,0,0,19918,15,0,145
00:00:15,7C0ED9E0,0,0,19917,7,0,146
00:00:23,7C0EDAE0,0,0,19916,6,0,146
00:00:31,7C0EDBE0,0,0,19915,6,0,146
00:00:39,7C0EDCE0,0,0,19915,7,0,146
00:00:47,7C0EDDE0,0,0,19917,7,0,146
00:00:55,7C0EDEE0,0,0,19914,7,0,146
00:01:03,7C0EDFE0,0,0,19916,7,0,145
00:01:11,7C0EE0E0,0,0,19915,6,0,145
00:01:19,7C0EE1E0,0,0,19914,9,0,145
00:01:27,7C0EE2E0,0,0,19914,5,0,144
00:01:35,7C0EE3E0,0,0,19915,4,0,144
00:01:43,7C0EE4E0,0,0,19914,4,0,144
00:01:51,7C0EE5E0,0,0,19914,6,0,143
00:01:59,7C0EE6E0,0,0,19913,8,0,143
00:02:07,7C0EE7E0,0,0,19912,5,0,143
00:02:15,7C0EE8E0,0,0,19913,4,0,142
00:02:23,7C0EE9E0,0,0,19912,7,0,142
00:02:31,7C0EEAE0,0,0,19911,6,0,142
00:02:39,7C0EEBE0,0,0,19911,6,0,142
00:02:47,7C0EECE0,0,0,19911,4,0,141
00:02:55,7C0EEDE0,0,0,19910,6,0,141
00:03:03,7C0EEEE0,0,0,19909,7,0,141
00:03:11,7C0EEFE0,0,0,19909,6,0,141
00:03:19,7C0EF0E0,0,0,19911,6,0,141
00:03:27,7C0EF1E0,0,0,19910,5,0,141
00:03:35,7C0EF2E0,0,0,19910,3,0,141
00:03:43,7C0EF3E0,0,0,19908,6,0,142
00:03:51,7C0EF4E0,0,0,19910,4,0,142
00:03:59,7C0EF5E0,0,0,19907,4,0,142
00:04:07,7C0EF6E0,0,0,19908,5,0,142
00:04:15,7C0EF7E0,0,0,19906,3,0,143
00:04:23,7C0EF8E0,0,0,19905,4,0,143
00:04:31,7C0EF9E0,0,0,19907,4,0,143
00:04:39,7C0EFAE0,0,0,19905,4,0,143
00:04:47,7C0EFBE0,0,0,19906,5,0,143
00:04:55,7C0EFCE0,0,0,19904,4,0,144
00:05:03,7C0EFDE0,0,0,19903,2,0,144
00:05:11,7C0EFEE0,0,0,19904,3,0,144
00:05:19,7C0EFFE0,0,0,19905,4,0,144
00:05:27,7C0F00E0,0,0,19905,3,0,144
00:05:35,7C0F01E0,0,0,19904,4,0,145
00:05:43,7C0F02E0,0,0,19905,4,0,145
00:05:51,7C0F03E0,0,0,19904,4,0,145
00:05:59,7C0F04E0,0,0,19904,2,0,145
00:06:07,7C0F05E0,0,0,19902,8,0,145
00:06:15,7C0F06E0,0,0,19904,5,0,146
00:06:23,7C0F07E0,0,0,19904,4,0,146
00:06:31,7C0F08E0,0,0,19903,6,0,146
00:06:39,7C0F09E0,0,0,19902,6,0,146
00:06:47,7C0F0AE0,0,0,19902,4,0,146
00:06:55,7C0F0BE0,0,0,19902,4,0,146
00:07:03,7C0F0CE0,0,0,19902,7,0,146
00:07:11,7C0F0DE0,0,0,19903,6,0,145
00:07:19,7C0F0EE0,0,0,19902,4,0,145
00:07:27,7C0F0FE0,0,0,19902,9,0,144
00:07:35,7C0F10E0,0,0,19904,6,0,144
00:07:43,7C0F11E0,0,0,19903,6,0,144
00:07:51,7C0F12E0,0,0,19903,5,0,143
00:07:59,7C0F13E0,0,0,19902,7,0,143
00:08:07,7C0F14E0,0,0,19902,7,0,143
00:08:15,7C0F15E0,0,0,19902,8,0,143
00:08:23,7C0F16E0,0,0,19902,5,0,143
00:08:31,7C0F17E0,0,0,19902,5,0,142
00:08:39,7C0F18E0,0,0,19900,6,0,142
00:08:47,7C0F19E0,0,0,19901,6,0,142
00:08:55,7C0F1AE0,0,0,19902,5,0,141
00:09:03,7C0F1BE0,0,0,19901,4,0,141
00:09:11,7C0F1CE0,0,0,19902,4,0,141
00:09:19,7C0F1DE0,0,0,19901,6,0,141
00:09:27,7C0F1EE0,0,0,19900,5,0,141
00:09:35,7C0F1FE0,0,0,19902,5,0,141
00:09:43,7C0F20E0,0,0,19900,5,0,141
00:09:51,7C0F21E0,0,0,19900,5,0,141
00:09:59,7C0F22E0,0,0,19900,8,0,142
00:10:07,7C0F23E0,0,0,19899,5,0,142
00:10:15,7C0F24E0,0,0,19900,4,0,142
00:10:23,7C0F25E0,0,0,19900,5,0,143
00:10:31,7C0F26E0,0,0,19900,6,0,143
00:10:39,7C0F27E0,0,0,19899,4,0,143
00:10:47,7C0F28E0,0,0,19900,6,0,143
00:10:55,7C0F29E0,0,0,19900,6,0,144
00:11:03,7C0F2AE0,0,0,19899,6,0,144
00:11:11,7C0F2BE0,0,0,19899,7,0,144
00:11:19,7C0F2CE0,0,0,19899,7,0,144
00:11:27,7C0F2DE0,0,0,19900,9,0,144
00:11:35,7C0F2EE0,0,0,19900,7,0,144
00:11:43,7C0F2FE0,0,0,19900,6,0,145
00:11:51,7C0F30E0,0,0,19899,5,0,145
00:11:59,7C0F31E0,0,0,19900,8,0,145
00:12:07,7C0F32E0,0,0,19900,7,0,145
00:12:15,7C0F33E0,0,0,19901,6,0,145
00:12:23,7C0F34E0,0,0,19900,9,0,145
00:12:31,7C0F35E0,0,0,19900,9,1,146
00:12:39,7C0F36E0,0,0,19900,9,0,146
00:12:47,7C0F37E0,0,0,19900,7,0,146
00:12:55,7C0F38E0,0,0,19899,17,0,146
00:13:03,7C0F39E0,0,0,19900,6,0,146
00:13:11,7C0F3AE0,0,0,19899,6,0,146
00:13:19,7C0F3BE0,0,0,19899,14,0,146
00:13:27,7C0F3CE0,0,0,19898,6,0,145
00:13:35,7C0F3DE0,0,0,19900,6,0,145
00:13:43,7C0F3EE0,0,0,19900,7,0,144
00:13:51,7C0F3FE0,0,0,19899,18,0,144
00:13:59,7C0F40E0,0,0,19900,6,0,144
00:14:07,7C0F41E0,0,0,19898,8,0,143
00:14:15,7C0F42E0,0,0,19899,5,0,143
00:14:23,7C0F43E0,0,0,19900,5,0,143
00:14:31,7C0F44E0,0,0,19901,6,1,142
00:14:39,7C0F45E0,0,0,19900,7,0,142
00:14:47,7C0F46E0,0,0,19900,9,0,142
00:14:55,7C0F47E0,0,0,19900,14,0,142
00:15:03,7C0F48E0,0,0,19901,7,0,141
00:15:11,7C0F49E0,0,0,19901,5,0,141
00:15:19,7C0F4AE0,0,0,19900,5,0,141
00:15:27,7C0F4BE0,0,0,19900,6,0,141
00:15:35,7C0F4CE0,0,0,19901,6,0,141
00:15:43,7C0F4DE0,0,0,19901,5,0,141
00:15:51,7C0F4EE0,0,0,19900,5,0,141
00:15:59,7C0F4FE0,0,0,19900,7,0,142
00:16:07,7C0F50E0,0,0,19902,3,0,142
00:16:15,7C0F51E0,0,0,19900,6,1,142
00:16:23,7C0F52E0,0,0,19901,4,0,142
00:16:31,7C0F53E0,0,0,19901,5,0,143
00:16:39,7C0F54E0,0,0,19902,11,0,143
00:16:47,7C0F55E0,0,0,19902,4,0,143
00:16:55,7C0F56E0,0,0,19902,4,0,143
00:17:03,7C0F57E0,0,0,19904,4,0,143
00:17:11,7C0F58E0,0,0,19903,6,0,144
00:17:19,7C0F59E0,0,0,19903,4,0,144
00:17:27,7C0F5AE0,0,0,19904,4,0,144
00:17:35,7C0F5BE0,0,0,19903,6,0,144
00:17:43,7C0F5CE0,0,0,19904,6,0,145
00:17:51,7C0F5DE0,0,0,19903,5,0,145
00:17:59,7C0F5EE0,0,0,19904,5,0,145
00:18:07,7C0F5FE0,0,0,19904,4,0,145
00:18:15,7C0F60E0,0,0,19905,4,0,145
00:18:23,7C0F61E0,0,0,19906,4,0,145
00:18:31,7C0F62E0,0,0,19905,6,0,145
00:18:39,7C0F63E0,0,0,19905,5,0,146
00:18:47,7C0F64E0,0,0,19905,4,0,146
00:18:55,7C0F65E0,0,0,19905,5,0,146
00:19:03,7C0F66E0,0,0,19905,6,0,146
00:19:11,7C0F67E0,0,0,19906,5,0,146
00:19:19,7C0F68E0,0,0,19905,5,0,146
00:19:27,7C0F69E0,0,0,19907,7,0,145
00:19:35,7C0F6AE0,0,0,19907,10,0,145
00:19:43,7C0F6BE0,0,0,19907,5,0,145
00:19:51,7C0F6CE0,0,0,19908,5,0,144
00:19:59,7C0F6DE0,0,0,19910,8,0,144
00:20:07,7C0F6EE0,0,0,19910,6,0,144
00:20:15,7C0F6FE0,0,0,19909,7,0,144
00:20:23,7C0F70E0,0,0,19910,23,0,143
00:20:31,7C0F71E0,0,0,19911,7,0,143
00:20:39,7C0F72E0,0,0,19910,4,0,143
00:20:47,7C0F73E0,0,0,19912,11,0,142
00:20:55,7C0F74E0,0,0,19912,10,0,142
00:21:03,7C0F75E0,0,0,19914,8,0,142
00:21:11,7C0F76E0,0,0,19914,7,0,142
00:21:19,7C0F77E0,0,0,19913,15,0,141
00:21:27,7C0F78E0,0,0,19912,25,0,141
00:21:35,7C0F79E0,0,0,19914,11,0,141
00:21:43,7C0F7AE0,0,0,19915,11,0,141
00:21:51,7C0F7BE0,0,0,19914,18,0,141
00:21:59,7C0F7CE0,0,0,19915,10,1,141
00:22:07,7C0F7DE0,0,0,19916,10,0,141
00:22:15,7C0F7EE0,0,0,19916,6,0,141
00:22:23,7C0F7FE0,0,0,19915,9,1,142
00:22:31,7C0F80E0,0,0,19916,16,0,142
00:22:39,7C0F81E0,0,0,19916,7,0,142
00:22:47,7C0F82E0,0,0,19917,12,0,143
00:22:55,7C0F83E0,0,0,19917,14,0,143
00:23:03,7C0F84E0,0,0,19918,20,0,143
00:23:11,7C0F85E0,0,0,19918,8,0,143
00:23:19,7C0F86E0,0,0,19918,6,0,144
00:23:27,7C0F87E0,0,0,19919,6,0,144
00:23:35,7C0F88E0,0,0,19919,6,0,144
00:23:43,7C0F89E0,0,0,19920,11,0,144
00:23:51,7C0F8AE0,0,0,19920,7,0,144
00:23:59,7C0F8BE0,0,0,19920,8,0,144
00:24:07,7C0F8CE0,0,0,19920,6,0,145
00:24:15,7C0F8DE0,0,0,19920,12,1,145
00:24:23,7C0F8EE0,0,0,19920,6,0,145
00:24:31,7C0F8FE0,0,0,19921,7,0,145
00:24:39,7C0F90E0,0,0,19920,11,0,145
00:24:47,7C0F91E0,0,0,19921,19,0,145
00:24:55,7C0F92E0,0,0,19922,6,0,146
00:25:03,7C0F93E0,0,0,19923,5,0,146
00:25:11,7C0F94E0,0,0,19923,6,0,146
00:25:19,7C0F95E0,0,0,19923,6,0,146
00:25:27,7C0F96E0,0,0,19922,8,0,146
00:25:35,7C0F97E0,0,0,19924,5,0,146
00:25:43,7C0F98E0,0,0,19924,7,0,146
00:25:51,7C0F99E0,0,0,19924,11,0,145
00:25:59,7C0F9AE0,0,0,19925,7,0,145
00:26:07,7C0F9BE0,0,0,19925,10,0,145
00:26:15,7C0F9CE0,0,0,19924,6,0,144
00:26:23,7C0F9DE0,0,0,19925,8,0,144
00:26:31,7C0F9EE0,0,0,19925,8,0,144
00:26:39,7C0F9FE0,0,0,19925,8,0,143
00:26:47,7C0FA0E0,0,0,19926,7,0,143
00:26:55,7C0FA1E0,0,0,19926,5,0,143
00:27:03,7C0FA2E0,0,0,19927,7,0,142
00:27:11,7C0FA3E0,0,0,19927,7,0,142
00:27:19,7C0FA4E0,0,0,19927,7,0,142
00:27:27,7C0FA5E0,0,0,19927,10,0,142
00:27:35,7C0FA6E0,0,0,19927,7,0,141
00:27:43,7C0FA7E0,0,0,19927,9,1,141
00:27:51,7C0FA8E0,0,0,19928,7,0,141
00:27:59,7C0FA9E0,0,0,19927,12,0,141
00:28:07,7C0FAAE0,0,0,19928,8,0,141
00:28:15,7C0FABE0,0,0,19928,7,0,141
00:28:23,7C0FACE0,0,0,19928,10,1,141
00:28:31,7C0FADE0,0,0,19928,12,1,142
00:28:39,7C0FAEE0,0,0,19928,10,0,142
00:28:47,7C0FAFE0,0,0,19929,7,0,142
00:28:55,7C0FB0E0,0,0,19928,9,0,142
00:29:03,7C0FB1E0,0,0,19929,7,0,143
00:29:11,7C0FB2E0,0,0,19929,8,0,143
00:29:19,7C0FB3E0,0,0,19930,7,0,143
00:29:27,7C0FB4E0,0,0,19929,5,0,143
00:29:35,7C0FB5E0,0,0,19929,6,0,144
00:29:43,7C0FB6E0,0,0,19930,7,0,144
00:29:51,7C0FB7E0,0,0,19930,19,0,144
00:29:59,7C0FB8E0,0,0,19930,7,0,144
00:30:07,7C0FB9E0,0,0,19930,22,0,145
00:30:15,7C0FBAE0,0,0,19931,10,1,145
00:30:23,7C0FBBE0,0,0,19931,22,0,145
00:30:31,7C0FBCE0,0,0,19930,14,0,145
00:30:39,7C0FBDE0,0,0,19931,8,0,145
00:30:47,7C0FBEE0,0,0,19931,8,0,145
00:30:55,7C0FBFE0,0,0,19931,28,0,145
00:31:03,7C0FC0E0,0,0,19931,26,0,145
00:31:11,7C0FC1E0,0,0,19931,8,0,146
00:31:19,7C0FC2E0,0,0,19931,8,0,146
00:31:27,7C0FC3E0,0,0,19931,15,0,146
00:31:35,7C0FC4E0,0,0,19931,14,0,146
00:31:43,7C0FC5E0,0,0,19931,7,0,146
00:31:51,7C0FC6E0,0,0,19932,7,0,146
00:31:59,7C0FC7E0,0,0,19932,7,0,146
00:32:07,7C0FC8E0,0,0,19931,15,0,145
00:32:15,7C0FC9E0,0,0,19932,7,0,145
00:32:23,7C0FCAE0,0,0,19932,22,0,145
00:32:31,7C0FCBE0,0,0,19931,21,0,144
00:32:39,7C0FCCE0,0,0,19932,23,0,144
00:32:47,7C0FCDE0,0,0,19931,26,0,144
00:32:55,7C0FCEE0,0,0,19931,15,0,143
00:33:03,7C0FCFE0,0,0,19932,26,1,143
00:33:11,7C0FD0E0,0,0,19932,7,0,143
00:33:19,7C0FD1E0,0,0,19931,25,0,142
00:33:27,7C0FD2E0,0,0,19932,16,0,142
00:33:35,7C0FD3E0,0,0,19931,25,0,142
00:33:43,7C0FD4E0,0,0,19931,17,1,141
00:33:51,7C0FD5E0,0,0,19931,17,0,141
00:33:59,7C0FD6E0,0,0,19931,12,0,141
00:34:07,7C0FD7E0,0,0,19931,9,0,141
00:34:15,7C0FD8E0,0,0,19931,6,0,141
00:34:23,7C0FD9E0,0,0,19931,13,0,141
00:34:31,7C0FDAE0,0,0,19931,8,0,141
00:34:39,7C0FDBE0,0,0,19931,7,0,142
00:34:47,7C0FDCE0,0,0,19929,12,0,142
00:34:55,7C0FDDE0,0,0,19930,5,0,142
00:35:03,7C0FDEE0,0,0,19931,8,0,142
00:35:11,7C0FDFE0,0,0,19930,10,0,143
00:35:19,7C0FE0E0,0,0,19930,7,0,143
00:35:27,7C0FE1E0,0,0,19929,9,0,143
00:35:35,7C0FE2E0,0,0,19930,6,0,143
00:35:43,7C0FE3E0,0,0,19930,5,0,143
00:35:51,7C0FE4E0,0,0,19930,16,0,144
00:35:59,7C0FE5E0,0,0,19929,7,0,144
00:36:07,7C0FE6E0,0,0,19929,7,0,144
00:36:15,7C0FE7E0,0,0,19930,7,0,144
00:36:23,7C0FE8E0,0,0,19929,13,0,144
00:36:31,7C0FE9E0,0,0,19929,8,0,145
00:36:39,7C0FEAE0,0,0,19928,5,0,145
00:36:47,7C0FEBE0,0,0,19929,8,0,145
00:36:55,7C0FECE0,0,0,19929,7,0,145
00:37:03,7C0FEDE0,0,0,19929,6,0,145
00:37:11,7C0FEEE0,0,0,19928,7,0,146
00:37:19,7C0FEFE0,0,0,19928,7,0,146
00:37:27,7C0FF0E0,0,0,19928,8,0,146
00:37:35,7C0FF1E0,0,0,19927,7,0,146
00:37:43,7C0FF2E0,0,0,19926,7,0,146
00:37:51,7C0FF3E0,0,0,19927,5,0,146
00:37:59,7C0FF4E0,0,0,19926,5,0,146
00:38:07,7C0FF5E0,0,0,19927,5,0,145
00:38:15,7C0FF6E0,0,0,19926,7,0,145
00:38:23,7C0FF7E0,0,0,19927,3,0,145
00:38:31,7C0FF8E0,0,0,19926,7,0,144
00:38:39,7C0FF9E0,0,0,19926,5,0,144
00:38:47,7C0FFAE0,0,0,19926,6,0,144
00:38:55,7C0FFBE0,0,0,19926,7,0,143
00:39:03,7C0FFCE0,0,0,19925,8,0,143
00:39:11,7C0FFDE0,0,0,19926,6,0,143
00:39:19,7C0FFEE0,0,0,19925,7,0,143
00:39:27,7C0FFFE0,0,0,19926,6,0,142
00:39:35,7C1000E0,0,0,19925,6,0,142
00:39:43,7C1001E0,0,0,19925,5,0,142
00:39:51,7C1002E0,0,0,19925,6,1,142
00:39:59,7C1003E0,0,0,19925,5,0,141
00:40:07,7C1004E0,0,0,19925,6,0,141
00:40:15,7C1005E0,0,0,19925,5,0,141
00:40:23,7C1006E0,0,0,19924,5,0,141
00:40:31,7C1007E0,0,0,19924,7,0,141
00:40:39,7C1008E0,0,0,19924,6,0,141
00:40:47,7C1009E0,0,0,19924,5,0,141
00:40:55,7C100AE0,0,0,19923,6,0,142
00:41:03,7C100BE0,0,0,19922,5,0,142
00:41:11,7C100CE0,0,0,19923,4,0,142
00:41:19,7C100DE0,0,0,19924,5,0,142
00:41:27,7C100EE0,0,0,19922,9,0,143
00:41:35,7C100FE0,0,0,19919,6,0,143
00:41:43,7C1010E0,0,0,19919,6,0,143
00:41:51,7C1011E0,0,0,19919,6,0,144
00:41:59,7C1012E0,0,0,19919,2,0,144
00:42:07,7C1013E0,0,0,19918,6,0,144
00:42:15,7C1014E0,0,0,19919,5,0,144
00:42:23,7C1015E0,0,0,19919,5,1,144
00:42:31,7C1016E0,0,0,19918,6,0,144
00:42:39,7C1017E0,0,0,19918,7,0,145
00:42:47,7C1018E0,0,0,19916,2,0,145
00:42:55,7C1019E0,0,0,19915,5,0,145
00:43:03,7C101AE0,0,0,19915,3,0,145
00:43:11,7C101BE0,0,0,19914,4,1,145
00:43:19,7C101CE0,0,0,19916,6,0,145
00:43:27,7C101DE0,0,0,19915,6,0,146
00:43:35,7C101EE0,0,0,19915,5,0,146
00:43:43,7C101FE0,0,0,19914,5,0,146
00:43:51,7C1020E0,0,0,19914,6,1,146
00:43:59,7C1021E0,0,0,19917,3,0,146
00:44:07,7C1022E0,0,0,19917,1,0,146
00:44:15,7C1023E0,0,0,19912,5,0,146
00:44:23,7C1024E0,0,0,19912,5,0,145
00:44:31,7C1025E0,0,0,19913,2,0,145
00:44:39,7C1026E0,0,0,19911,4,0,145
00:44:47,7C1027E0,0,0,19909,5,0,144
00:44:55,7C1028E0,0,0,19909,5,0,144
00:45:03,7C1029E0,0,0,19909,4,0,143
00:45:11,7C102AE0,0,0,19909,4,0,143
00:45:19,7C102BE0,0,0,19909,4,0,143
00:45:27,7C102CE0,0,0,19909,3,0,142
00:45:35,7C102DE0,0,0,19909,2,0,142
00:45:43,7C102EE0,0,0,19910,3,0,142
00:45:51,7C102FE0,0,0,19907,5,0,142
00:45:59,7C1030E0,0,0,19907,4,0,141
00:46:07,7C1031E0,0,0,19907,3,0,141
00:46:15,7C1032E0,0,0,19905,4,0,141
00:46:23,7C1033E0,0,0,19906,3,0,141
00:46:31,7C1034E0,0,0,19906,6,0,141
00:46:39,7C1035E0,0,0,19906,3,0,141
00:46:47,7C1036E0,0,0,19905,1,0,141
00:46:55,7C1037E0,0,0,19905,5,0,142
00:47:03,7C1038E0,0,0,19907,2,0,142
00:47:11,7C1039E0,0,0,19902,5,0,142
00:47:19,7C103AE0,0,0,19904,5,0,142
00:47:27,7C103BE0,0,0,19903,4,0,143
00:47:35,7C103CE0,0,0,19901,2,0,143
00:47:43,7C103DE0,0,0,19902,4,0,143
00:47:51,7C103EE0,0,0,19904,2,0,143
00:47:59,7C103FE0,0,0,19902,3,1,143
00:48:07,7C1040E0,0,0,19901,4,0,144
00:48:15,7C1041E0,0,0,19901,3,0,144
00:48:23,7C1042E0,0,0,19901,3,0,144
00:48:31,7C1043E0,0,0,19900,2,0,144
00:48:39,7C1044E0,0,0,19900,3,0,145
00:48:47,7C1045E0,0,0,19899,5,0,145
00:48:55,7C1046E0,0,0,19898,5,0,145
00:49:03,7C1047E0,0,0,19898,2,0,145
00:49:11,7C1048E0,0,0,19901,1,0,145
00:49:19,7C1049E0,0,0,19897,7,0,145
00:49:27,7C104AE0,0,0,19898,5,1,145
00:49:35,7C104BE0,0,0,19897,5,0,146
00:49:43,7C104CE0,0,0,19895,7,0,146
00:49:51,7C104DE0,0,0,19895,5,0,146
00:49:59,7C104EE0,0,0,19898,4,1,146
00:50:07,7C104FE0,0,0,19894,8,0,146
00:50:15,7C1050E0,0,0,19896,4,0,145
00:50:23,7C1051E0,0,0,19894,5,0,145
00:50:31,7C1052E0,0,0,19894,4,0,145
00:50:39,7C1053E0,0,0,19895,4,0,144
00:50:47,7C1054E0,0,0,19893,7,0,144
00:50:55,7C1055E0,0,0,19893,5,0,144
00:51:03,7C1056E0,0,0,19893,3,0,144
00:51:11,7C1057E0,0,0,19891,6,0,143
00:51:19,7C1058E0,0,0,19891,5,0,143
00:51:27,7C1059E0,0,0,19892,5,0,143
00:51:35,7C105AE0,0,0,19890,5,0,143
00:51:43,7C105BE0,0,0,19890,3,0,142
00:51:51,7C105CE0,0,0,19890,4,0,142
00:51:59,7C105DE0,0,0,19890,6,0,142
00:52:07,7C105EE0,0,0,19890,5,0,141
00:52:15,7C105FE0,0,0,19890,3,0,141
00:52:23,7C1060E0,0,0,19891,3,0,141
00:52:31,7C1061E0,0,0,19890,2,0,141
00:52:39,7C1062E0,0,0,19889,6,0,141
00:52:47,7C1063E0,0,0,19889,3,0,141
00:52:55,7C1064E0,0,0,19889,5,0,141
00:53:03,7C1065E0,0,0,19889,3,0,141
00:53:11,7C1066E0,0,0,19887,5,0,142
00:53:19,7C1067E0,0,0,19890,1,0,142
00:53:27,7C1068E0,0,0,19887,3,0,142
00:53:35,7C1069E0,0,0,19884,4,0,142
00:53:43,7C106AE0,0,0,19883,2,0,143
00:53:51,7C106BE0,0,0,19886,2,0,143
00:53:59,7C106CE0,0,0,19887,3,0,143
00:54:07,7C106DE0,0,0,19889,3,0,144
00:54:15,7C106EE0,0,0,19887,4,0,144
00:54:23,7C106FE0,0,0,19885,3,0,144
00:54:31,7C1070E0,0,0,19885,4,0,144
00:54:39,7C1071E0,0,0,19886,5,0,144
00:54:47,7C1072E0,0,0,19884,7,0,144
00:54:55,7C1073E0,0,0,19884,4,0,145
00:55:03,7C1074E0,0,0,19883,5,0,145
00:55:11,7C1075E0,0,0,19884,5,0,145
00:55:19,7C1076E0,0,0,19884,6,0,145
00:55:27,7C1077E0,0,0,19884,6,0,145
00:55:35,7C1078E0,0,0,19884,8,1,145
00:55:43,7C1079E0,0,0,19884,6,0,146
00:55:51,7C107AE0,0,0,19885,7,0,146
00:55:59,7C107BE0,0,0,19883,7,0,146
00:56:07,7C107CE0,0,0,19883,11,0,146
00:56:15,7C107DE0,0,0,19883,6,0,146
00:56:23,7C107EE0,0,0,19883,5,0,146
00:56:31,7C107FE0,0,0,19882,7,0,145
00:56:39,7C1080E0,0,0,19883,5,0,145
00:56:47,7C1081E0,0,0,19883,7,0,145
00:56:55,7C1082E0,0,0,19883,4,0,144
00:57:03,7C1083E0,0,0,19882,9,0,144
00:57:11,7C1084E0,0,0,19883,5,0,144
00:57:19,7C1085E0,0,0,19882,9,1,143
00:57:27,7C1086E0,0,0,19882,8,0,143
00:57:35,7C1087E0,0,0,19882,6,0,143
00:57:43,7C1088E0,0,0,19883,6,0,142
00:57:51,7C1089E0,0,0,19883,7,0,142
00:57:59,7C108AE0,0,0,19883,9,0,142
00:58:07,7C108BE0,0,0,19883,9,0,141
00:58:15,7C108CE0,0,0,19883,9,0,141
00:58:23,7C108DE0,0,0,19883,5,0,141
00:58:31,7C108EE0,0,0,19883,6,0,141
00:58:39,7C108FE0,0,0,19883,6,0,141
00:58:47,7C1090E0,0,0,19883,7,0,141
00:58:55,7C1091E0,0,0,19883,9,0,141
00:59:03,7C1092E0,0,0,19884,7,0,141
00:59:11,7C1093E0,0,0,19884,22,1,142
00:59:19,7C1094E0,0,0,19884,9,0,142
00:59:27,7C1095E0,0,0,19884,9,1,142
00:59:35,7C1096E0,0,0,19884,15,0,142
00:59:43,7C1097E0,0,0,19883,26,0,143
00:59:51,7C1098E0,0,0,19884,11,0,143
00:59:59,7C1099E0,0,0,19884,10,0,143
01:00:07,7C109AE0,0,0,19885,5,0,143
01:00:15,7C109BE0,0,0,19884,10,1,143
01:00:23,7C109CE0,0,0,19884,19,0,144
01:00:31,7C109DE0,0,0,19884,25,0,144
01:00:39,7C109EE0,0,0,19884,6,0,144
01:00:47,7C109FE0,0,0,19884,21,1,144
01:00:55,7C10A0E0,0,0,19884,19,0,145
01:01:03,7C10A1E0,0,0,19885,10,0,145
01:01:11,7C10A2E0,0,0,19886,7,0,145
01:01:19,7C10A3E0,0,0,19884,10,0,145
01:01:27,7C10A4E0,0,0,19885,14,0,145
01:01:35,7C10A5E0,0,0,19885,25,0,145
01:01:43,7C10A6E0,0,0,19885,17,0,145
01:01:51,7C10A7E0,0,0,19885,9,0,146
01:01:59,7C10A8E0,0,0,19885,7,0,146
01:02:07,7C10A9E0,0,0,19885,22,0,146
01:02:15,7C10AAE0,0,0,19886,6,0,146
01:02:23,7C10ABE0,0,0,19885,9,0,146
01:02:31,7C10ACE0,0,0,19887,8,0,146
01:02:39,7C10ADE0,0,0,19887,7,0,146
01:02:47,7C10AEE0,0,0,19886,12,1,145
01:02:55,7C10AFE0,0,0,19886,7,0,145
01:03:03,7C10B0E0,0,0,19885,17,0,145
01:03:11,7C10B1E0,0,0,19885,8,0,144
01:03:19,7C10B2E0,0,0,19886,11,0,144
01:03:27,7C10B3E0,0,0,19885,9,0,144
01:03:35,7C10B4E0,0,0,19885,7,0,143
01:03:43,7C10B5E0,0,0,19885,15,0,143
01:03:51,7C10B6E0,0,0,19885,6,0,143
01:03:59,7C10B7E0,0,0,19886,8,0,142
01:04:07,7C10B8E0,0,0,19886,7,0,142
01:04:15,7C10B9E0,0,0,19886,7,0,142
01:04:23,7C10BAE0,0,0,19885,7,0,142
01:04:31,7C10BBE0,0,0,19885,11,0,141
01:04:39,7C10BCE0,0,0,19885,9,0,141
01:04:47,7C10BDE0,0,0,19884,9,0,141
01:04:55,7C10BEE0,0,0,19885,7,0,141
01:05:03,7C10BFE0,0,0,19885,9,0,141
01:05:11,7C10C0E0,0,0,19884,8,0,141
01:05:19,7C10C1E0,0,0,19884,6,0,141
01:05:27,7C10C2E0,0,0,19884,8,0,142
01:05:35,7C10C3E0,0,0,19882,10,0,142
01:05:43,7C10C4E0,0,0,19883,8,0,142
01:05:51,7C10C5E0,0,0,19885,5,0,143
01:05:59,7C10C6E0,0,0,19884,5,0,143
01:06:07,7C10C7E0,0,0,19883,8,0,143
01:06:15,7C10C8E0,0,0,19885,8,0,143
01:06:23,7C10C9E0,0,0,19884,6,0,143
01:06:31,7C10CAE0,0,0,19884,16,0,144
01:06:39,7C10CBE0,0,0,19885,5,0,144
01:06:47,7C10CCE0,0,0,19885,8,0,144
01:06:55,7C10CDE0,0,0,19884,7,0,144
01:07:03,7C10CEE0,0,0,19884,20,1,144
01:07:11,7C10CFE0,0,0,19884,12,0,145
01:07:19,7C10D0E0,0,0,19884,8,0,145
01:07:27,7C10D1E0,0,0,19885,6,0,145
01:07:35,7C10D2E0,0,0,19885,5,0,145
01:07:43,7C10D3E0,0,0,19884,5,0,145
01:07:51,7C10D4E0,0,0,19884,7,0,146
01:07:59,7C10D5E0,0,0,19884,7,0,146
01:08:07,7C10D6E0,0,0,19884,8,0,146
01:08:15,7C10D7E0,0,0,19884,7,0,146
01:08:23,7C10D8E0,0,0,19885,9,0,146
01:08:31,7C10D9E0,0,0,19884,7,0,146
01:08:39,7C10DAE0,0,0,19883,7,0,146
01:08:47,7C10DBE0,0,0,19883,10,0,146
01:08:55,7C10DCE0,0,0,19884,6,0,145
01:09:03,7C10DDE0,0,0,19884,6,0,145
01:09:11,7C10DEE0,0,0,19884,7,0,145
01:09:19,7C10DFE0,0,0,19884,7,0,144
01:09:27,7C10E0E0,0,0,19884,8,0,144
01:09:35,7C10E1E0,0,0,19884,8,0,144
01:09:43,7C10E2E0,0,0,19884,20,0,143
01:09:51,7C10E3E0,0,0,19884,15,0,143
01:09:59,7C10E4E0,0,0,19884,7,0,143
01:10:07,7C10E5E0,0,0,19883,12,0,142
01:10:15,7C10E6E0,0,0,19884,7,0,142
01:10:23,7C10E7E0,0,0,19884,8,0,142
01:10:31,7C10E8E0,0,0,19884,20,1,142
01:10:39,7C10E9E0,0,0,19884,8,0,142
01:10:47,7C10EAE0,0,0,19884,7,0,141
01:10:55,7C10EBE0,0,0,19885,6,0,141
01:11:03,7C10ECE0,0,0,19883,13,0,141
01:11:11,7C10EDE0,0,0,19884,7,0,141
01:11:19,7C10EEE0,0,0,19883,6,0,141
01:11:27,7C10EFE0,0,0,19883,9,0,141
01:11:35,7C10F0E0,0,0,19882,7,0,142
01:11:43,7C10F1E0,0,0,19882,8,1,142
01:11:51,7C10F2E0,0,0,19882,6,0,142
01:11:59,7C10F3E0,0,0,19882,5,0,142
01:12:07,7C10F4E0,0,0,19881,6,0,143
01:12:15,7C10F5E0,0,0,19881,7,0,143
01:12:23,7C10F6E0,0,0,19882,4,0,143
01:12:31,7C10F7E0,0,0,19880,6,0,144
01:12:39,7C10F8E0,0,0,19880,6,0,144
01:12:47,7C10F9E0,0,0,19881,6,1,144
01:12:55,7C10FAE0,0,0,19880,6,0,144
01:13:03,7C10FBE0,0,0,19881,6,0,144
01:13:11,7C10FCE0,0,0,19881,7,0,144
01:13:19,7C10FDE0,0,0,19880,5,0,145
01:13:27,7C10FEE0,0,0,19880,7,0,145
01:13:35,7C10FFE0,0,0,19879,7,0,145
01:13:43,7C1100E0,0,0,19878,5,0,145
01:13:51,7C1101E0,0,0,19879,5,0,145
01:13:59,7C1102E0,0,0,19963,2,0,145
01:14:07,7C1103E0,0,0,49,0,0,145
01:14:15,7C1104E0,0,0,20053,2,0,146
01:14:23,7C1105E0,0,0,19920,6,0,146
01:14:31,7C1106E0,0,0,19897,4,0,146
01:14:39,7C1107E0,0,0,19880,6,0,146
01:14:47,7C1108E0,0,0,19883,6,0,146
01:14:55,7C1109E0,0,0,19881,6,0,146
01:15:03,7C110AE0,0,0,19881,7,0,145
01:15:11,7C110BE0,0,0,19880,7,0,145
01:15:19,7C110CE0,0,0,19880,6,0,145
01:15:27,7C110DE0,0,0,19879,20,0,144
01:15:35,7C110EE0,0,0,19879,7,0,144
01:15:43,7C110FE0,0,0,19881,7,0,144
01:15:51,7C1110E0,0,0,19881,12,0,143
01:15:59,7C1111E0,0,0,19880,9,0,143
01:16:07,7C1112E0,0,0,19881,5,0,143
01:16:15,7C1113E0,0,0,19881,6,0,142
01:16:23,7C1114E0,0,0,19879,11,0,142
01:16:31,7C1115E0,0,0,19881,8,0,142
01:16:39,7C1116E0,0,0,19881,8,0,141
01:16:47,7C1117E0,0,0,19881,7,0,141
01:16:55,7C1118E0,0,0,19882,6,0,141
01:17:03,7C1119E0,0,0,19882,8,0,141
01:17:11,7C111AE0,0,0,19882,5,0,141
01:17:19,7C111BE0,0,0,19882,7,0,141
01:17:27,7C111CE0,0,0,19883,6,0,141
01:17:35,7C111DE0,0,0,19884,6,0,142
01:17:43,7C111EE0,0,0,19884,7,0,142
01:17:51,7C111FE0,0,0,19886,3,0,142
01:17:59,7C1120E0,0,0,3204,0,0,142
01:18:07,7C1121E0,0,0,19885,5,0,143
01:18:15,7C1122E0,0,0,19885,7,0,143
01:18:23,7C1123E0,0,0,19886,8,0,143
01:18:31,7C1124E0,0,0,19884,7,0,143
01:18:39,7C1125E0,0,0,19886,4,0,143
01:18:47,7C1126E0,0,0,19887,5,0,144
01:18:55,7C1127E0,0,0,19887,5,0,144
01:19:03,7C1128E0,0,0,19886,5,0,144
01:19:11,7C1129E0,0,0,19887,5,0,144
01:19:19,7C112AE0,0,0,19888,6,0,145
01:19:27,7C112BE0,0,0,19889,5,0,145
01:19:35,7C112CE0,0,0,19889,6,0,145
01:19:43,7C112DE0,0,0,19889,5,1,145
01:19:51,7C112EE0,0,0,19890,2,0,145
01:19:59,7C112FE0,0,0,19890,7,0,145
01:20:07,7C1130E0,0,0,19891,6,0,146
01:20:15,7C1131E0,0,0,19890,5,0,146
01:20:23,7C1132E0,0,0,19889,4,0,146
01:20:31,7C1133E0,0,0,19890,7,0,146
01:20:39,7C1134E0,0,0,19891,4,0,146
01:20:47,7C1135E0,0,0,19891,5,0,146
01:20:55,7C1136E0,0,0,19892,6,0,146
01:21:03,7C1137E0,0,0,19892,3,0,145
01:21:11,7C1138E0,0,0,19892,5,0,145
01:21:19,7C1139E0,0,0,19891,3,0,145
01:21:27,7C113AE0,0,0,19893,4,0,144
01:21:35,7C113BE0,0,0,19892,6,0,144
01:21:43,7C113CE0,0,0,19893,3,0,144
01:21:51,7C113DE0,0,0,19894,4,1,143
01:21:59,7C113EE0,0,0,19893,6,0,143
01:22:07,7C113FE0,0,0,19894,3,0,143
01:22:15,7C1140E0,0,0,19893,4,0,143
01:22:23,7C1141E0,0,0,19895,3,0,142
01:22:31,7C1142E0,0,0,19895,3,0,142
01:22:39,7C1143E0,0,0,19895,5,0,142
01:22:47,7C1144E0,0,0,19895,5,0,142
01:22:55,7C1145E0,0,0,19899,2,0,141
01:23:03,7C1146E0,0,0,19898,5,0,141
01:23:11,7C1147E0,0,0,19898,1,0,141
01:23:19,7C1148E0,0,0,19897,4,0,141
01:23:27,7C1149E0,0,0,19896,5,0,141
01:23:35,7C114AE0,0,0,19897,4,0,141
01:23:43,7C114BE0,0,0,19900,3,0,141
01:23:51,7C114CE0,0,0,19902,3,0,141
01:23:59,7C114DE0,0,0,19884,6,0,142
01:24:07,7C114EE0,0,0,19876,7,0,142
01:24:15,7C114FE0,0,0,19903,5,0,142
01:24:23,7C1150E0,0,0,19901,5,0,143
01:24:31,7C1151E0,0,0,19903,3,0,143
01:24:39,7C1152E0,0,0,19902,3,0,143
01:24:47,7C1153E0,0,0,19901,5,0,143
01:24:55,7C1154E0,0,0,19901,4,0,144
01:25:03,7C1155E0,0,0,19902,5,0,144
01:25:11,7C1156E0,0,0,19903,3,0,144
01:25:19,7C1157E0,0,0,19903,4,0,144
01:25:27,7C1158E0,0,0,19904,4,0,144
01:25:35,7C1159E0,0,0,19903,5,0,145
01:25:43,7C115AE0,0,0,19904,4,0,145
01:25:51,7C115BE0,0,0,19903,5,0,145
01:25:59,7C115CE0,0,0,19903,3,0,145
01:26:07,7C115DE0,0,0,19906,4,0,145